Probability
3 4 5 6 6 7 7 8 7 5 3 4 5 6 4 4 4 5 3 1 0 0 0 0 0 0 0 0 0 0 0 0 0 1 3 5 7 8
3 3 5 7 7 8 9 11 11 8 5 5 7 7 5 3 2 3 3 1 0 0 0 0 0 0 0 0 0 0 0 0 0 0 1 3 4 6
2 3 5 7 9 9 11 13 13 11 8 7 8 8 5 2 0 1 1 1 1 0 0 0 0 0 0 0 0 0 0 0 0 0 0 1 3 4
2 2 4 7 9 11 11 11 11 10 8 7 8 7 4 2 1 0 0 0 0 0 0 0 0 0 0 0 0 0 0 0 0 0 0 1 2 2
1 1 3 6 9 10 10 8 7 7 7 7 7 7 5 2 1 0 0 0 0 0 0 0 0 0 0 0 0 0 0 0 0 0 0 0 1 1
0 1 3 5 6 8 7 6 6 6 6 7 7 6 4 2 1 1 0 0 0 1 1 0 0 0 0 0 0 0 0 0 0 0 0 0 0 0
1 2 3 3 3 3 3 4 5 6 7 7 7 4 2 2 3 2 1 0 0 1 2 1 1 0 0 0 0 0 0 0 0 0 0 0 0 0
2 2 1 1 0 1 1 1 3 4 6 7 5 3 1 3 3 2 1 0 0 1 2 2 1 0 0 0 0 0 0 0 0 0 0 0 0 0
1 1 0 0 0 0 0 0 1 1 3 4 3 2 1 2 2 1 0 0 0 1 1 1 0 0 0 0 0 0 0 0 0 0 0 0 0 0
0 0 0 0 0 1 0 0 0 0 1 2 3 2 1 2 1 0 0 0 0 0 0 0 0 1 1 1 0 0 0 0 0 0 0 0 0 0
0 0 0 0 0 0 0 0 0 0 0 1 1 1 0 1 1 0 0 0 0 0 0 0 0 1 2 2 1 0 0 0 0 0 0 0 0 0
0 0 0 0 0 0 0 0 0 0 0 0 0 0 0 0 0 0 0 0 0 0 0 0 0 1 1 1 1 0 0 0 0 0 0 0 0 0
0 0 0 0 0 0 0 0 0 0 0 0 1 1 1 0 0 0 0 0 0 0 0 0 0 0 0 0 0 0 0 0 0 0 0 0 0 0
0 0 0 0 0 0 0 0 0 0 0 0 1 2 1 0 0 0 0 0 0 0 0 0 0 0 0 0 0 0 0 0 0 0 0 0 0 0
0 0 0 0 0 0 0 0 0 0 0 0 1 2 2 1 0 0 0 0 1 1 0 0 0 0 0 0 0 0 0 0 0 0 0 1 1 1
0 0 0 0 0 0 0 0 0 0 0 0 1 2 2 1 0 0 0 0 1 1 0 0 0 0 0 0 0 0 0 0 0 0 0 1 2 2
0 0 0 0 0 0 0 0 0 0 0 0 0 1 1 0 0 0 0 0 1 1 0 0 0 0 0 0 0 0 0 0 0 0 0 0 1 1
0 0 0 0 0 0 0 0 0 0 0 0 0 0 0 0 0 0 0 0 0 0 0 0 0 0 0 0 0 0 0 0 0 0 0 0 0 0
0 0 0 0 0 0 0 0 0 0 0 0 0 0 0 0 0 0 0 0 0 0 0 0 0 0 0 0 0 0 0 0 0 0 0 0 0 0
0 0 0 0 0 0 0 0 0 0 0 0 0 0 0 0 0 0 0 0 0 0 0 0 0 0 0 0 0 0 0 0 0 0 0 0 0 0
0 0 0 0 0 0 0 0 0 0 0 0 0 0 0 0 0 0 0 0 0 0 0 0 0 0 0 0 0 0 0 0 0 0 0 0 0 0
0 0 0 0 0 0 0 0 0 0 0 0 0 0 0 0 0 0 0 0 0 0 0 0 0 0 0 0 0 0 0 0 0 0 0 0 0 0
0 0 0 0 0 0 0 0 0 0 0 0 0 0 0 0 0 0 0 0 0 0 0 0 0 0 0 0 0 0 0 0 0 0 0 0 0 0
Wind_Speed
5 5 5 4 5 5 5 5 6 7 6 4 4 4 4 4 3 6 7 5 8 9 9 9 9 9 10 10 10 10 10 11 11 11 13 14 15 16
4 5 5 5 4 5 5 5 6 7 7 5 5 4 4 5 4 6 7 6 9 9 9 9 9 9 9 10 10 10 10 10 11 12 12 13 14 15
5 5 5 5 4 4 4 5 5 6 7 6 5 4 5 7 5 6 7 7 6 10 10 9 9 9 9 9 9 9 9 9 10 11 12 12 12 13
5 5 5 5 5 5 4 5 5 5 6 8 6 5 6 6 6 7 7 6 7 7 10 10 10 9 9 9 9 9 9 9 9 10 11 11 11 11
5 5 6 6 6 5 5 5 5 5 6 7 7 5 5 5 6 7 7 6 7 5 8 10 11 10 9 9 9 9 8 8 9 9 10 10 10 10
5 5 6 6 6 6 5 6 6 6 6 6 6 5 5 5 5 6 5 5 5 6 5 5 7 11 11 10 9 9 8 8 9 9 9 9 9 9
5 5 5 5 5 6 6 5 6 6 5 5 5 5 4 4 5 5 5 5 5 5 4 5 5 6 7 9 10 8 8 8 8 9 9 9 9 9
5 5 5 5 6 7 8 8 7 7 7 6 5 5 6 6 5 6 6 5 5 3 4 6 5 5 5 5 5 7 8 8 8 8 8 9 9 10
5 5 5 4 5 6 6 8 9 9 9 7 7 7 7 6 6 7 6 6 6 4 5 6 5 5 4 3 6 7 8 8 8 8 8 8 9 9
5 5 5 5 4 6 7 6 6 5 6 6 6 7 7 6 6 7 7 7 6 5 4 6 5 5 5 3 6 8 8 8 8 8 8 8 8 9
4 4 5 5 3 5 6 6 6 5 4 5 6 7 7 6 5 5 5 5 5 4 3 5 5 5 5 4 3 8 9 8 9 9 8 8 8 9
3 3 2 3 4 4 5 5 6 6 6 5 5 6 6 6 7 6 5 5 5 5 2 4 5 5 5 4 3 3 4 6 8 9 9 9 8 7
4 4 3 3 3 4 5 4 5 7 7 6 4 3 3 3 3 3 4 5 5 5 4 4 5 5 5 5 4 3 3 3 4 5 7 9 10 9
5 5 4 4 4 4 3 4 6 7 5 5 4 4 3 3 3 3 3 4 5 6 6 5 5 5 6 6 5 4 4 4 4 4 4 6 8 11
4 4 4 3 4 3 2 4 5 4 5 5 5 4 4 3 4 3 3 4 5 5 4 5 6 5 5 6 6 5 4 4 4 4 4 4 4 5
3 2 4 4 4 3 2 2 2 3 4 5 5 4 4 3 3 3 4 4 4 4 3 5 5 6 6 6 6 5 5 5 4 4 4 5 5 5
7 4 3 2 2 2 2 3 3 3 3 4 4 4 4 4 4 3 4 4 5 4 4 3 4 4 6 6 6 5 5 5 5 4 4 5 5 4
6 3 3 3 3 3 3 3 3 3 4 4 4 4 4 4 4 4 4 4 5 5 5 4 4 4 4 4 3 5 5 5 4 4 4 5 5 4
3 3 4 4 4 4 4 4 4 4 4 4 4 4 4 5 4 4 4 5 5 5 4 4 4 5 5 5 3 3 4 4 4 4 4 4 5 4
3 3 4 4 4 4 4 5 4 4 4 5 5 5 5 5 5 5 4 5 6 5 5 4 4 5 5 6 5 3 3 4 4 4 5 4 4 2
4 4 4 4 4 4 4 4 5 4 5 5 5 5 5 5 5 5 5 5 6 5 5 5 4 5 6 5 5 3 2 1 3 4 5 5 4 3
4 4 4 4 4 4 4 4 4 4 5 4 5 5 5 5 5 6 6 6 5 5 6 5 5 5 5 5 5 4 3 2 1 1 3 3 4 4
4 4 4 4 4 4 4 5 5 5 5 5 5 5 5 5 5 5 5 6 5 5 5 5 5 4 5 4 4 4 4 4 3 2 1 2 4 4
Wind_Direction
254 244 253 259 261 267 265 262 271 280 278 270 266 270 273 271 260 262 265 234 227 232 235 241 248 254 254 249 243 241 243 244 243 243 244 243 241 240
260 261 262 261 261 258 258 263 262 267 276 284 284 288 291 284 252 264 262 232 230 229 234 239 245 250 252 248 243 240 240 240 240 241 243 244 243 241
262 260 262 270 270 272 266 264 266 265 269 278 282 286 279 279 281 273 261 252 236 214 222 231 238 242 246 244 243 241 239 239 241 242 242 241 241 241
271 269 268 261 261 265 267 267 268 269 269 275 280 278 273 274 275 272 269 263 262 213 210 223 232 233 236 239 241 240 240 241 239 237 236 235 235 239
280 276 275 271 268 267 264 268 269 266 264 268 273 277 274 274 276 271 269 267 266 237 212 219 225 227 231 233 235 237 238 239 237 232 231 231 232 236
278 278 278 276 276 276 267 265 268 271 267 268 271 273 274 278 277 278 274 262 267 268 255 245 226 219 223 227 229 233 236 238 236 231 230 230 230 231
279 278 278 281 290 283 284 285 279 275 274 274 277 277 279 289 286 284 284 283 269 271 272 257 241 236 224 222 222 224 230 233 233 232 230 228 226 227
291 289 281 268 266 254 260 266 272 274 282 283 286 290 288 287 295 291 292 291 285 282 280 277 264 255 245 238 202 204 217 225 229 229 229 227 224 223
296 294 293 299 288 288 267 245 247 244 250 274 288 290 292 296 295 289 289 289 289 294 284 280 279 272 262 237 179 193 208 217 221 224 226 223 221 222
295 300 301 301 319 312 300 291 281 264 244 250 272 283 290 299 290 284 284 278 273 271 276 280 283 282 278 256 182 189 202 212 217 220 222 223 221 221
300 307 304 303 347 317 295 295 294 289 243 237 257 267 275 273 278 284 282 282 288 287 282 281 287 289 280 268 212 191 201 210 215 217 219 219 220 221
303 293 354 330 338 323 298 301 305 312 306 281 256 248 248 238 226 252 277 284 292 289 298 285 290 295 290 278 271 237 219 212 215 218 218 216 214 226
318 324 10 36 345 322 301 308 314 306 299 297 290 283 277 278 261 254 275 284 289 291 307 301 294 292 290 291 286 274 259 247 231 229 221 217 213 220
319 335 2 5 326 312 311 325 307 293 295 307 310 312 315 316 314 299 285 284 283 284 297 300 289 290 288 286 287 283 272 263 255 251 246 215 216 223
320 336 327 309 293 272 268 292 293 304 319 317 316 317 322 326 314 301 282 273 268 267 274 275 277 282 280 282 284 284 280 272 268 268 262 251 241 231
298 277 229 243 260 282 284 275 310 333 324 319 321 327 326 322 312 310 301 291 280 275 267 269 270 276 278 281 283 283 282 281 276 270 269 266 254 241
317 303 318 321 322 333 330 330 328 329 323 318 320 325 324 321 316 311 302 299 296 298 298 287 272 267 272 280 282 284 287 285 280 280 271 268 265 256
301 326 344 345 343 344 337 336 341 342 334 328 328 328 326 321 318 318 313 310 308 310 311 311 303 285 271 262 271 288 288 285 284 277 271 274 274 266
298 337 347 348 344 344 343 343 345 347 338 332 335 334 328 320 317 317 320 316 310 309 310 314 306 296 293 291 270 267 293 298 300 292 281 275 278 279
332 341 344 348 345 342 343 344 343 346 344 337 337 336 333 325 321 320 321 320 313 308 307 310 311 310 303 301 300 291 270 293 295 289 284 274 273 264
345 344 346 347 343 340 339 338 337 338 340 329 329 329 325 319 320 320 318 316 306 309 311 312 322 303 291 287 282 288 313 291 292 293 292 283 280 276
346 341 347 348 342 338 337 335 334 336 335 326 329 325 323 321 320 317 317 316 314 316 315 314 316 303 297 293 293 299 308 311 247 242 285 280 287 291
341 339 339 338 337 335 337 337 335 335 337 333 330 327 322 318 316 317 319 315 315 317 317 316 316 310 304 303 303 306 305 304 305 304 302 176 195 216